User: anonymous   Login
Location: Härggis
(46.9540°N, 8.4897°E)
Time: 08:06:46
(UTC+00:00)
Language:

Gblst 52 Del rocket - Orbit

View from above orbital plane
View from above orbital plane
View from above satellite
View from above satellite

Ground track
Ground track

The orbit data is extracted from the following two-line orbital elements,

1 25774U 99031E   22222.54796331 -.00000045  00000-0  92582-4 0  9995
2 25774  51.5275 265.2800 0374475 324.6027 194.3513 13.46493290139739
Epoch (UTC): 10 August 2022 13:09:04
Eccentricity: 0.0374475
inclination: 51.5275°
perigee height: 806 km
apogee height: 1364 km
right ascension of ascending node: 265.2800°
argument of perigee: 324.6027°
revolutions per day: 13.46493290
mean anomaly at epoch: 194.3513°
orbit number at epoch: 13973

The dashed part of the orbit path shows where the satellite is in the earth's shadow,  

DLR